Flag Weather past 2 weeks in Grand Junction, Colorado, U.S.A.

Now
36 °F

Passing clouds.


Feels Like: 33 °F
Forecast: 25 / 47 °F
Wind: 3 mph from Southwest

Location: Walker Field

Current Time: Nov 25, 2014 at 7:08:55 PM

Latest Report: Nov 25, 2014 at 5:53 PM


Visibility: 10 mi

Pressure: 30.32 "Hg

Humidity: 46%

Dew point: 17 °F

Location of Grand JunctionLocation

Historic Weather in Grand Junction — Graph

°F

Grand Junction temperature yesterday

Maximum temperature yesterday: 40 °F (at 3:53 PM)
Minimum temperature yesterday: 18 °F (at 12:53 AM)
Average temperature yesterday: 28 °F

Past Weeks' High & Low Weather Summary

 TemperatureHumidityPressure
High51 °F (Nov 21, 2:53 PM)100% (Nov 22, 8:53 PM)30.55 "Hg (Nov 22, 8:53 PM)
Low12 °F (Nov 17, 6:53 AM)20% (Nov 16, 1:53 PM)29.77 "Hg (Nov 23, 12:53 AM)
Average30 °F56%30.16 "Hg
* Reported Nov 10 5:53 PM — Nov 25 5:53 PM, Grand Junction, Weather by CustomWeather, © 2014

Note: Actual official high and low records may vary slightly from our data, if they occured in-between our weather recording intervals... More about our weather records

Advertising

Grand Junction weather history for previous 24 hours

 ConditionsComfort  
Time TempWeatherWind HumidityBarometerVisibility
5:53 PM
Nov 25
36 °FPassing clouds.3 mph46%30.32 "Hg10 mi
4:53 PM37 °FOvercast.No wind42%30.33 "Hg10 mi
3:53 PM37 °FPartly sunny.5 mph41%30.33 "Hg10 mi
2:53 PM39 °FSunny.No wind36%30.33 "Hg10 mi
1:53 PM37 °FScattered clouds.6 mph41%30.37 "Hg10 mi
12:53 PM35 °FOvercast.5 mph44%30.40 "Hg10 mi
11:53 AM32 °FOvercast.6 mph50%30.45 "Hg10 mi
10:53 AM30 °FOvercast.6 mph54%30.48 "Hg10 mi
9:53 AM29 °FOvercast.3 mph56%30.47 "Hg10 mi
8:53 AM27 °FOvercast.6 mph61%30.47 "Hg10 mi
7:53 AM24 °FOvercast.7 mph68%30.47 "Hg10 mi
6:53 AM25 °FOvercast.12 mph63%30.47 "Hg10 mi
5:53 AM25 °FOvercast.12 mph66%30.44 "Hg10 mi
4:53 AM24 °FClear.12 mph68%30.45 "Hg10 mi
3:53 AM24 °FClear.14 mph68%30.44 "Hg10 mi
2:53 AM24 °FClear.16 mph71%30.44 "Hg10 mi
1:53 AM21 °FPassing clouds.9 mph81%30.47 "Hg10 mi
12:53 AM22 °FClear.10 mph78%30.46 "Hg10 mi
11:53 PM
Nov 24
21 °FClear.7 mph81%30.48 "Hg10 mi
10:53 PM21 °FClear.6 mph81%30.46 "Hg10 mi
9:53 PM22 °FClear.9 mph75%30.46 "Hg10 mi
8:53 PM24 °FClear.No wind68%30.45 "Hg10 mi
7:53 PM27 °FClear.No wind55%30.42 "Hg10 mi
Weather by CustomWeather, © 2014

See weather overviewHow to use our weather pages